Location: �mondeville
(49.4591°N, 1.3431°W)
Time: 14:09:59
(UTC+00:00)

Resurs 1-4 Rocket - Pass Details

Date: 22 October 2019
Orbit: 800 x 813 km, 98.6° (Epoch: 12 November)

Event Time Altitude Azimuth Distance (km) Brightness Sun altitude
Rises 03:56:13 0° 2° (N) 3,349 5.5 -26.6°
Reaches altitude 10° 03:59:43 10° 338° (NNW) 2,414 4.5 -26.1°
Enters shadow 03:59:48 10° 337° (NNW) 2,398 4.5 -26.1°
